172  
ASUS41 KBTV 160030  
RWRBTV  
VERMONT REGIONAL WEATHER ROUNDUP  
NATIONAL WEATHER SERVICE BURLINGTON VT  
800 PM EDT MON JUL 15 2019  
 
NOTE: "FAIR" INDICATES FEW OR NO CLOUDS BELOW 12,000 FEET WITH NO  
SIGNIFICANT WEATHER AND/OR S TO VISIBILITY
.  
 
* THESE REPORTS ARE NOT UNDER NWS QUALITY CONTROL AND/OR DO NOT  
REPORT WEATHER SUCH AS PRECIPITATION AND FOG.
 
 
VTZ001>019-160100-  
_____VERMONT_____  
 
 
CITY SKY/WX TMP DP RH WIND PRES REMARKS
 
BURLINGTON MOCLDY 78 55 44 N5 30.02R  
6HR MIN TEMP: 78; 6HR MAX TEMP: 81;  
 
MONTPELIER FAIR 72 55 55 NW5 30.08S  
6HR MIN TEMP: 72; 6HR MAX TEMP: 75;  
 
MORRISVILLE FAIR 70 59 68 CALM 30.03S  
6HR MIN TEMP: 70; 6HR MAX TEMP: 78;  
 
LYNDONVILLE* FAIR 69 56 62 W5 30.07R  
6HR MIN TEMP: 70; 6HR MAX TEMP: 76;  
 
RUTLAND* FAIR 70 62 76 SW5 30.04S  
6HR MIN TEMP: 70; 6HR MAX TEMP: 77;  
 
SPRINGFIELD FAIR 72 57 59 W5 30.03S  
6HR MIN TEMP: 72; 6HR MAX TEMP: 81;  
 
HIGHGATE* FAIR 75 59 58 CALM 30.02R  
6HR MIN TEMP: 77; 6HR MAX TEMP: 83;  
 
NEWPORT* FAIR 69 57 65 CALM 30.05S  
6HR MIN TEMP: 70; 6HR MAX TEMP: 76;  
 
BENNINGTON FAIR 70 64 81 CALM 30.04S  
6HR MIN TEMP: 70; 6HR MAX TEMP: 79;  
 
ISLAND POND* N/A 68 N/A N/A CALM N/A  
GALLUP MILLS* N/A 64 N/A N/A MISG N/A  
LAKE EDEN* N/A 70 N/A N/A NE1 N/A  
 
_____LAKE CHAMPLAIN_____  
 
 
CITY SKY/WX TMP DP RH WIND PRES REMARKS
 
BURTON ISLAND* N/A 77 59 53 NW1 N/A  
COLCHESTER RF* N/A 77 59 53 NE2 N/A  
DIAMOND ISL* N/A 75 55 50 W8 N/A  
 

 
 
NYZ007-026>031-035-052-083-087-160100-  
_____NORTHERN NEW YORK_____  
 
 
CITY SKY/WX TMP DP RH WIND PRES REMARKS
 
PLATTSBURGH FAIR 73 62 68 CALM 30.01R  
6HR MIN TEMP: 73; 6HR MAX TEMP: 80;  
 
SARANAC LAKE FAIR 66 55 67 SW3 30.07S  
6HR MIN TEMP: 66; 6HR MAX TEMP: 75;  
 
MASSENA FAIR 76 61 59 SW9 30.03R  
6HR MIN TEMP: 76; 6HR MAX TEMP: 81;  
 
OGDENSBURG* FAIR 72 59 64 SW6 30.01S  
POTSDAM* FAIR 72 63 73 W6 30.05R  
WATERTOWN FAIR 72 58 61 SW5 30.04S  
6HR MIN TEMP: 72; 6HR MAX TEMP: 78;  
 
FT DRUM FAIR 73 56 55 SW7 30.05S  
6HR MIN TEMP: 73; 6HR MAX TEMP: 78;  
 
ALBANY MOCLDY 79 57 46 W9 30.02R  
6HR MIN TEMP: 79; 6HR MAX TEMP: 85;  
 
GLENS FALLS FAIR 74 62 66 CALM 30.02R  
6HR MIN TEMP: 74; 6HR MAX TEMP: 82;  
 

 
NHZ002-005-011-160100-  
_____NEW HAMPSHIRE_____  
 
 
CITY SKY/WX TMP DP RH WIND PRES REMARKS
 
LEBANON FAIR 72 58 61 CALM 30.01S  
6HR MIN TEMP: 72; 6HR MAX TEMP: 83;  
 
KEENE FAIR 70 61 73 CALM 30.03R  
6HR MIN TEMP: 70; 6HR MAX TEMP: 82;  
 
PLYMOUTH FAIR 73 55 54 NW5 30.01S  
6HR MIN TEMP: 73; 6HR MAX TEMP: 80;  
 
WHITEFIELD FAIR 69 59 70 CALM 30.04R  
6HR MIN TEMP: 69; 6HR MAX TEMP: 78;  
 

 
 
_____REGIONAL QUEBEC LOCATIONS_____  
 
 
CITY SKY/WX TMP DP RH WIND PRES REMARKS
 
MONTREAL MOCLDY 75 57 53 SW8 29.99S  
QUEBEC CITY PTCLDY 72 61 68 W6 29.95R  
SHERBROOKE PTCLDY 70 61 73 VRB2 30.01R  
 
_____REGIONAL ONTARIO LOCATIONS_____  
 
 
CITY SKY/WX TMP DP RH WIND PRES REMARKS
 
OTTAWA PTCLDY 75 61 60 SW3 30.00R  
 
______KEY______  
VSB - VISIBILITY IN MILES  
WCI - WIND CHILL INDEX  
HX - HEAT INDEX  

 
NNNN  
 
 
CLICK HERE TO GO TO PREVIOUS BULLETINS.

The Nexlab VT Page
The Nexlab NY Page Main Text Page